www.pogodaiklimat.ru

Погода и климат >> Архив погоды >> Антарктида >> Сёва


ПОГОДА на Сёве

  • Прогноз погоды на Сёве
  • Монитор погоды на Сёве

АРХИВ ПОГОДЫ на Сёве

Время (UTC), дата Ветер
(напр.,м/с)
 
Видим.   Явления Облачность Т
(С)
Тd
(С)
f
(%)
Тe
(С)
Тes
(С)
Комфортность P
(гПа)
Po
(гПа)
Тmin
(С)
Tmax
(С)
R
(мм)
R24
(мм)
S
(см)
12 13.06 СВ 10 8000 м слаб. снег 10/10
[Sc]
-8.5 -10.4 86 -19 -19 976.9 974.2 -8.6 -7.1
15 13.06 СВ 11 1500 м слаб. снег 10/10
[Sc]
-8.6 -10.5 86 -20 -20 977.6 974.9
18 13.06 СВ 11 2000 м слаб. снег 10/9
[Sc Ac As]
-9.0 -11.1 85 -20 -20 978.1 975.4
21 13.06 С 7 2000 м слаб. снег 10/10
[Sc]
-9.8 -11.3 89 -19 -19 978.9 976.1
00 14.06 ЮЗ 2 1500 м слаб. снег 10/10
[Sc]
-15.0 -16.8 86 -20 -20 980.3 977.5 -15.0 -8.5
03 14.06 З 4 20 км слаб. снег 10/10
[Sc]
-16.0 -18.6 80 -24 -24 980.7 977.9
06 14.06 СЗ 1 20 км слаб. снег 9/9
[Sc]
-17.8 -19.8 84 -21 -21 981.2 978.4
09 14.06 Ю 2 20 км {снег} 9/5
[Sc Ac trans Ci sp]
-19.5 -21.4 85 -25 -25 981.1 978.2
12 14.06 Ю 2 1500 м дымка {снег, туман} 9/3
[Sc Ac trans Ci sp]
-20.3 -22.3 84 -26 -26 980.7 977.8 -21.5 -15.0
15 14.06 Ю 5 15 км слаб. снег 9/8
[Sc Ac As]
-20.3 -22.4 83 -30 -30 979.5 976.6
18 14.06 Ю 4 20 км слаб. снег 9/9
[Sc]
-17.6 -19.5 85 -26 -26 978.6 975.8
21 14.06 Ю 5 20 км слаб. снег 9/6
[Sc Ac As Ci sp]
-18.5 -20.5 84 -28 -28 977.9 975.1
00 15.06 ЮВ 2 20 км слаб. снег 10/9
[Sc Ac As]
-16.8 -18.8 84 -22 -22 977.3 974.5 -20.8 -16.7
03 15.06 Ю 4 20 км слаб. снег 9/9
[Sc Ac As]
-15.5 -17.2 87 -23 -23 976.4 973.6
06 15.06 Ю 5 20 км {снег} 9/3
[Sc Ac trans Ci sp]
-17.4 -19.3 85 -27 -27 976.3 973.5
09 15.06 Ю 5 30 км 6/3
[Sc Ac trans]
-18.9 -21.1 83 -29 -29 976.6 973.8
12 15.06 Ю 6 30 км 9/8
[Sc Ac trans Ci sp]
-19.4 -21.8 81 -30 -30 976.6 973.7 -19.6 -15.4
15 15.06 Ю 1 20 км слаб. снег 9/9
[Sc]
-18.9 -21.5 80 -22 -22 976.0 973.2
18 15.06 Ю 2 10 км слаб. снег 10/10
[Sc]
-17.9 -20.3 81 -22 -22 976.7 973.9
21 15.06 ЮЗ 2 20 км слаб. снег 10/10
[Sc]
-17.5 -19.7 83 -23 -23 977.1 974.3
00 16.06 ЮЗ 2 10 км слаб. снег 10/10
[Sc]
-16.4 -18.5 84 -21 -21 977.5 974.7 -20.1 -16.4
03 16.06 Ю 2 15 км слаб. снег 10/10
[Sc]
-15.2 -17.1 85 -20 -20 977.7 974.9
06 16.06 З 1 20 км {снег} 10/10
[Sc]
-14.6 -16.6 85 -17 -17 978.9 976.1
09 16.06 СЗ 1 20 км 9/9
[Sc Ac As]
-14.2 -16.3 84 -17 -17 980.1 977.3
12 16.06 В 1 20 км 9/9
[Sc Ac As]
-14.4 -16.2 86 -17 -17 981.5 978.7 -16.4 -13.3
15 16.06 З 1 20 км слаб. снег 9/9
[Sc]
-14.2 -16.4 83 -15 -15 982.5 979.7
18 16.06 В 2 20 км слаб. снег 9/9
[Sc]
-13.2 -16.7 75 -17 -17 984.0 981.2
21 16.06 С 3 20 км слаб. снег 10/10
[Sc]
-12.0 -15.7 74 -17 -17 984.3 981.5
00 17.06 ЮЗ 3 3000 м слаб. снег 10/10
[Sc]
-11.4 -13.0 88 -17 -17 984.6 981.8 -14.7 -9.7
03 17.06 СВ 12 3000 м слаб. снег 9/9
[Sc]
-10.3 -11.8 89 -22 -22 984.0 981.2
06 17.06 СВ 15 200 м снег 10/10
[Sc]
-11.3 -12.6 90 -24 -24 985.1 982.3
09 17.06 СВ 13 800 м снег {метель} 10/10
[Sc]
-11.2 -12.6 89 -23 -23 987.2 984.4
12 17.06 СВ 12 900 м снег {метель} 10/10
[Sc]
-11.8 -13.4 88 -24 -24 987.5 984.7 -11.8 -10.2
15 17.06 СВ 15 300 м снег {метель} 10/10
[Sc]
-11.2 -12.6 89 -24 -24 986.1 983.3
18 17.06 СВ 14 500 м снег {метель} 10/10
[Sc]
-11.5 -12.9 89 -24 -24 986.3 983.5
21 17.06 З 5 2000 м слаб. снег {метель} 10/10
[Sc]
-16.3 -18.1 86 -25 -25 988.2 985.3
00 18.06 Ю 2 5000 м слаб. снег {метель} 10/10
[Sc]
-16.7 -18.3 87 -22 -22 989.5 986.6 -17.0 -11.0
03 18.06 штиль 0 5000 м слаб. снег 10/10
[Sc]
-16.5 -18.3 86 -17 -17 990.1 987.2
06 18.06 штиль 0 8000 м слаб. снег 9/9
[Sc]
-18.6 -20.6 84 -19 -19 990.6 987.7
09 18.06 С 3 10 км слаб. снег 9/9 600 м
[Sc]
-19.5 -21.5 84 -26 -26 990.9 988.0
12 18.06 ЮЗ 3 4000 м слаб. снег 9/9
[Sc]
-19.9 -22.0 83 -27 -27 991.4 988.5 -20.6 -16.4
15 18.06 Ю 3 4000 м слаб. снег 9/9
[Sc]
-19.1 -21.1 84 -26 -26 991.4 988.5
18 18.06 Ю 4 15 км слаб. снег 9/9
[Sc]
-21.0 -23.2 82 -30 -30 991.2 988.3
21 18.06 Ю 4 20 км {снег} 9/9
[Sc]
-22.7 -25.2 80 -32 -32 опасность
обморожения
990.7 987.8
00 19.06 ЮВ 2 30 км {снег} 1/1
[Sc]
-26.1 -28.8 78 -33 -33 опасность
обморожения
989.3 986.3 -27.2 -19.1
03 19.06 ЮВ 4 30 км 1/1
[Sc]
-26.6 -29.3 78 -36 -36 опасность
обморожения
986.9 983.9
06 19.06 ЮВ 4 30 км 1/1
[Sc Ci sp]
-25.1 -28.0 77 -35 -35 опасность
обморожения
984.5 981.6
09 19.06 Ю 6 30 км 6/1
[Sc Ac trans Ci sp]
-25.4 -28.2 77 -37 -37 опасность
обморожения
981.5 978.6
12 19.06 Ю 7 30 км 9/1
[Sc Ac trans Ci sp]
-25.4 -28.5 75 -38 -38 опасность
обморожения
977.9 975.0 -28.1 -23.3
15 19.06 Ю 8 30 км 9/1
[Sc Ac trans Ci sp]
-24.3 -27.7 73 -38 -38 опасность
обморожения
972.9 970.0
18 19.06 Ю 7 30 км 10/8
[Sc As trans]
-20.2 -23.7 74 -32 -32 опасность
обморожения
967.6 964.8
21 19.06 Ю 7 5000 м слаб. снег 10/8
[Sc As op]
-16.2 -18.2 85 -27 -27 962.5 959.7
00 20.06 СВ 16 400 м снег 9/9
[Sc]
-5.3 -6.1 94 -17 -17 957.0 954.4 -28.1 -5.3
03 20.06 СВ 20 100 м сильн. снег {метель} 10/10
[Sc]
-4.5 -5.2 95 -17 -17 955.0 952.4
06 20.06 СВ 23 100 м сильн. снег {метель} 10/10
[Sc]
-4.3 -5.0 95 -17 -17 952.6 950.0

 

Местоположение метеостанции Сёва (Антарктида): широта -69.00 долгота 39.58 высота над уровнем моря 21 м.

В архиве по умолчанию представлена погода на Сёве за последнюю неделю. Архивные данные за месяц целиком и за предыдущие месяцы, начиная с января 2011 года, Вы можете получить, выбрав интересующий диапазон дат из раскрывающегося списка и нажав кнопку "Ввод!".


*Определитесь, кто Вы:
робот инопланетянин человек

Внимание! Время в таблицах - всемирное. Для получения местного времени необходимо прибавить поправку, которая равна 0 ч.

Смотрите также архив погоды в соседних городах и на ближайших метеорологических станциях:

Погода на Молодежной (Антарктида) (297 км)
Погода на Relay Station (Антарктида) (570 км)

Пояснения к столбцам:

Ветер - указаны скорость ветра в м/с - средняя за 10 мин, порывы в срок и между сроками (в фигурных скобках) и направление, откуда дует ветер: С - северный, СВ - северо-восточный, В - восточный, ЮВ - юго-восточный, Ю - южный, ЮЗ - юго-западный, З - западный, СЗ - северо-западный.
Видимость - горизонтальная дальность видимости в метрах или километрах. При видимости от 1 до 10 км при отсутствии осадков обычно наблюдается дымка, при ухудшении видимости до 1 км и менее - туман. В сухую погоду видимость может ухудшаться дымом, пылью или мглою.
Явления - указаны атмосферные явления, наблюдавшиеся в срок или в последний час перед сроком; фигурными скобками обозначены явления, наблюдавшиеся между сроками (за 1-3 часа до срока); квадратными скобками обозначены град или гололедные отложения с указанием их диаметра в мм.
Облачность - указаны через наклонную черту общая и нижняя облачность в баллах и высота нижней границы облаков в метрах; квадратными скобками обозначены формы облаков: Ci - перистые, Cs - перисто-слоистые, Cc - перисто-кучевые, Ac - высококучевые, As - высокослоистые, Sc - слоисто-кучевые, Ns - слоисто-дождевые, Cu - кучевые, Cb - кучево-дождевые. Подробнее классификацию облаков см. в Атласе облаков (PDF).
T - Температура воздуха - температура, измеренная на высоте 2 м над землей.
Td - Температура точки росы - температура, при понижении до которой содержащийся в воздухе водяной пар достигнет насыщения.
f - Относительная влажность воздуха - влажноcть воздуха, измеренная на высоте 2 м над землей.
Te - Эффективная температура - температура, которую ощущает одетый по сезону человек в тени. Характеристика душности погоды. При расчете учитывается влияние влажности воздуха и скорости ветра на теплоощущения человека.
Tes - Эффективная температура на солнце - температура, которую ощущает человек, с поправкой на солнечный нагрев. Характеристика знойности погоды. Зависит от высоты солнца над горизонтом, облачности и скорости ветра. Ночью, в пасмурную погоду, а также при ветре 12 м/с и более поправка равна нулю.
P - Атмосферное давление - приведенное к уровню моря атмосферное давление.
Po - Атмосферное давление - измеренное на уровне метеостанции атмосферное давление.
Tmin - Минимальная температура - минимум температуры воздуха на высоте 2 м над землей.
Tmax - Максимальная температура - максимум температуры воздуха на высоте 2 м над землей.
R - Количество осадков - Количество выпавших осадков за период времени, мм. При наведении курсора мыши на число - период времени, за который выпало указанное количество осадков.
R24 - Количество осадков - Количество выпавших осадков за 24 часа, мм.
S - Снежный покров - Высота снежного покрова, см. При наведении курсора мыши на число - состояние снежного покрова и степень покрытия местности в баллах.